Location: Boiro
(42.6475°N, 8.8834°W)
Time: 07:13:18
(UTC+02:00)

FALCONSAT-6 - Pass Details

Date: 08 July 2022
Orbit: 555 x 585 km, 97.6° (Epoch: 10 August)

Event Time Altitude Azimuth Distance (km) Brightness Sun altitude
Exits shadow 22:51:09 - 106° (ESE) 2,243 ? -6.2°
Reaches altitude 10° 22:52:32 10° 92° (E) 1,903 ? -6.4°
Maximum altitude 22:54:30 13° 63° (ENE) 1,697 ? -6.7°
Drops below altitude 10° 22:56:29 10° 34° (NE) 1,904 ? -7.0°
Sets 22:59:38 0° 8° (N) 2,804 ? -7.4°
